Weather History for KRMG - September, 2012

Change the Weather History Date:

Wednesday, September 5, 2012

  Actual Average Record
Temperature  
Mean Temperature 80 °F 75 °F  
Max Temperature 87 °F 87 °F 99 °F (1999)
Min Temperature 72 °F 64 °F 7 °F (1996)
Degree Days  
Heating Degree Days 0 0  
Month to date heating degree days 0  
Since 1 July heating degree days 0  
Cooling Degree Days 14 10  
Month to date cooling degree days 54  
Year to date cooling degree days 1420  
Growing Degree Days 30 (Base 50)    
Moisture  
Dew Point 73 °F    
Average Humidity 86    
Maximum Humidity 100    
Minimum Humidity 57    
Precipitation  
Precipitation 0.00 in 0.08 in 5.50 in (2011)
Month to date precipitation 0.43  
Year to date precipitation 35.85  
Sea Level Pressure  
Sea Level Pressure 29.90 in    
Wind  
Wind Speed 2 mph (SSE)    
Max Wind Speed 5 mph    
Max Gust Speed -    
Visibility 10 miles    
Events      
T = Trace of Precipitation, MM = Missing Value Source: NWS Daily Summary

Daily Weather History Graph

Daily Weather History Graph

Search for Another Location

Airport or City:

Trip Planner

Search our weather history database for the weather conditions in past years. The results will help you decide how hot, cold, wet, or windy it might be!

Date:

Astronomy

Sep. 05, 2012 Rise Set
Actual Time 7:17 AM EDT 8:00 PM EDT
Civil Twilight 6:51 AM EDT 8:26 PM EDT
Nautical Twilight 6:21 AM EDT 8:55 PM EDT
Astronomical Twilight 5:50 AM EDT 9:26 PM EDT
Moon 10:46 PM EDT (9/5) 12:04 PM EDT (9/5)
Length of Visible Light 13h 34m
Length of Day
12h 43m
Waning Gibbous, 76% of the Moon is Illuminated
Sep 5
Waning Gibbous
Sep 8
Last Quarter
Sep 15
New
Sep 22
First Quarter
Sep 29
Full

Hourly Weather History & Observations

Time (EDT) Temp. Heat Index Dew Point Humidity Pressure Visibility Wind Dir Wind Speed Gust Speed Precip Events Conditions
12:53 AM 73.9 °F - 73.9 °F 100% 29.88 in 10.0 mi SSE 4.6 mph - N/A   Overcast
1:42 AM 73.4 °F - 73.4 °F 100% 29.91 in 10.0 mi Calm Calm - N/A   Mostly Cloudy
1:53 AM 73.9 °F - 73.0 °F 97% 29.88 in 10.0 mi Calm Calm - N/A   Mostly Cloudy
2:36 AM 73.4 °F - 73.4 °F 100% 29.91 in 10.0 mi SE 3.5 mph - N/A   Overcast
2:53 AM 73.9 °F - 73.0 °F 97% 29.88 in 10.0 mi Calm Calm - N/A   Overcast
3:43 AM 73.4 °F - 73.4 °F 100% 29.91 in 10.0 mi Calm Calm - N/A   Overcast
3:53 AM 73.9 °F - 73.0 °F 97% 29.88 in 10.0 mi Calm Calm - N/A   Overcast
4:53 AM 73.9 °F - 73.0 °F 97% 29.89 in 10.0 mi Calm Calm - N/A   Overcast
5:03 AM 73.4 °F - 73.4 °F 100% 29.91 in 10.0 mi Calm Calm - N/A   Overcast
5:53 AM 73.0 °F - 73.0 °F 100% 29.89 in 10.0 mi Calm Calm - N/A   Overcast
6:53 AM 72.0 °F - 72.0 °F 100% 29.90 in 10.0 mi SSE 3.5 mph - N/A   Mostly Cloudy
7:04 AM 73.4 °F - 73.4 °F 100% 29.94 in 10.0 mi Calm Calm - N/A   Overcast
7:53 AM 73.9 °F - 73.0 °F 97% 29.92 in 9.0 mi Calm Calm - N/A   Overcast
8:31 AM 73.4 °F - 73.4 °F 100% 29.96 in 10.0 mi Calm Calm - N/A   Overcast
8:53 AM 75.0 °F - 72.0 °F 90% 29.93 in 10.0 mi Calm Calm - N/A   Mostly Cloudy
9:53 AM 78.1 °F - 72.0 °F 81% 29.94 in 10.0 mi Variable 3.5 mph - N/A   Scattered Clouds
10:53 AM 79.0 °F - 72.0 °F 79% 29.94 in 10.0 mi Calm Calm - N/A   Mostly Cloudy
11:53 AM 80.1 °F 83.2 °F 70.0 °F 71% 29.94 in 10.0 mi SSW 3.5 mph - N/A   Overcast
12:10 PM 80.6 °F 84.6 °F 71.6 °F 74% 29.96 in 10.0 mi Calm Calm - N/A   Overcast
12:53 PM 82.9 °F 87.5 °F 71.1 °F 67% 29.92 in 10.0 mi Variable 3.5 mph - N/A   Overcast
1:53 PM 84.9 °F 90.7 °F 72.0 °F 65% 29.90 in 10.0 mi Variable 3.5 mph - N/A   Scattered Clouds
2:53 PM 87.1 °F 92.8 °F 71.1 °F 59% 29.88 in 10.0 mi Calm Calm - N/A   Mostly Cloudy
3:53 PM 84.9 °F 90.7 °F 72.0 °F 65% 29.86 in 10.0 mi East 3.5 mph - N/A   Mostly Cloudy
4:53 PM 84.9 °F 90.7 °F 72.0 °F 65% 29.85 in 10.0 mi Calm Calm - N/A   Mostly Cloudy
5:53 PM 87.1 °F 93.6 °F 72.0 °F 61% 29.84 in 10.0 mi Variable 3.5 mph - N/A   Mostly Cloudy
6:53 PM 84.0 °F 90.2 °F 73.0 °F 69% 29.84 in 10.0 mi South 4.6 mph - N/A   Mostly Cloudy
7:53 PM 81.0 °F 85.2 °F 72.0 °F 74% 29.85 in 10.0 mi SSW 3.5 mph - N/A   Partly Cloudy
8:53 PM 75.9 °F - 73.9 °F 94% 29.86 in 10.0 mi Calm Calm - N/A   Clear
9:53 PM 75.0 °F - 73.9 °F 96% 29.87 in 10.0 mi Calm Calm - N/A   Clear
10:53 PM 75.0 °F - 73.9 °F 96% 29.89 in 10.0 mi Calm Calm - N/A   Clear
11:53 PM 73.9 °F - 73.9 °F 100% 29.91 in 9.0 mi Calm Calm - N/A   Mostly Cloudy